Estación meteorológica de Calldetenes (Osona, Plana de Vic)

Consulta los datos en tiempo real de la estación meteorológica de Calldetenes





Hora UTC 02:15
Temperatura 16.9 ºC
Suelo 15 cm 16.5 ºC
Humedad 93.3 %
Presión 1021.7 hPa
Pluja 0.0 mm
Velocidad viento 2.6 km/h
Dirección viento SSE
Radiación solar 0.1 W/m²

Webcam

Datos diarios 2026-09-02



Hora UTC (invierno +1h; verano +2h)
Temperatura (ºC) Humedad (%) Presión (hPa) Velocidad viento (km/h) Precipitación (mm) Radiación solar (W/m²)
Hora UTC Aire Suelo 15 cm Humedad Presión Vel. Dir. Vel. Max Dir. Intent. máx 5 min. Rad. Sol.
00:05 17.8 17.6 89.5 1021.8 4.8 S 4.8 S 0.0 0.1
00:10 17.9 17.5 90.3 1021.8 4.4 S 6.4 SSW 0.0 0.1
00:15 17.9 17.6 88.8 1021.8 2.5 S 4.2 S 0.0 0.1
00:20 17.9 17.5 89.8 1021.8 0.6 S 2.5 S 0.0 0.1
00:25 17.9 17.6 89.7 1021.8 1.4 ESE 2.5 ESE 0.0 0.1
00:30 17.7 17.6 88.3 1021.8 1.4 ENE 2.5 ENE 0.0 0.1
00:35 17.6 17.5 89.8 1021.8 0.5 NW 2.1 NW 0.0 0.1
00:40 17.6 17.4 89.8 1021.8 1.3 NNW 3.9 NNW 0.0 0.1
00:45 17.5 17.4 90.6 1021.9 2.5 N 3.9 N 0.0 0.1
00:50 17.6 17.4 91.0 1021.9 2.3 NNE 3.5 NNE 0.0 0.1
00:55 17.6 17.5 91.0 1021.9 0.2 NNE 1.4 NE 0.0 0.1
01:00 17.7 17.6 90.1 1021.9 0.9 S 4.9 SSW 0.0 0.1
01:05 17.4 17.5 89.4 1021.8 0.0 NNE 0.0 ENE 0.0 0.1
01:10 17.4 17.4 90.0 1021.8 1.7 SE 3.2 SSE 0.0 0.1
01:15 17.0 17.2 89.0 1021.8 0.9 SE 2.5 ESE 0.0 0.1
01:20 16.8 16.9 90.8 1021.8 3.4 SE 4.2 SE 0.0 0.1
01:25 17.0 16.8 92.0 1021.8 3.9 SE 4.9 SE 0.0 0.1
01:30 16.9 16.8 91.0 1021.8 3.7 ESE 5.3 SE 0.0 0.1
01:35 16.7 16.6 91.3 1021.7 2.0 SE 5.3 SE 0.0 0.1
01:40 16.6 16.5 92.2 1021.7 0.0 NNE 0.0 SSE 0.0 0.1
01:45 16.8 16.5 93.6 1021.7 1.8 ESE 5.3 ESE 0.0 0.1
01:50 17.0 16.6 93.4 1021.7 3.6 E 4.9 ESE 0.0 0.1
01:55 16.8 16.7 92.3 1021.8 2.0 ESE 3.5 E 0.0 0.1
02:00 16.8 16.7 92.3 1021.8 1.7 SE 2.8 SE 0.0 0.1
02:05 16.7 16.6 92.4 1021.9 1.9 SE 4.2 SE 0.0 0.1
02:10 16.7 16.5 92.8 1021.9 2.6 SSE 4.2 ESE 0.0 0.1
02:15 16.9 16.5 93.3 1021.7 2.6 SSE 3.5 S 0.0 0.1
Máxima 17.9 17.6 93.6 1021.9 4.8 S 6.4 SSW 0.0 0.1
Mínima 16.6 16.5 88.3 1021.7
Total 0.0